Location: Newark
(44.6768°N, 22.5302°E)
Time: 13:22:43
(UTC+00:00)

AO-73 - Visible Passes

Search period start: 28 June 2022 00:00
Search period end: 08 July 2022 00:00
Orbit: 579 x 658 km, 97.6° (Epoch: 27 June)

Date Brightness Start Highest point End Pass type
(mag) Time Alt. Az. Time Alt. Az. Time Alt. Az.
28 Jun ? 01:33:20 10° NE 01:36:26 18° E 01:39:33 10° SE visible
29 Jun ? 01:49:32 10° NE 01:53:20 27° E 01:57:09 10° SSE visible
30 Jun ? 02:05:59 10° NNE 02:10:12 39° E 02:14:25 10° SSE visible
03 Jul ? 01:21:36 10° ENE 01:24:00 14° E 01:26:26 10° ESE visible
04 Jul ? 01:37:31 10° NE 01:40:56 21° E 01:44:20 10° SE visible
05 Jul ? 01:53:48 10° NNE 01:57:48 30° E 02:01:47 10° SSE visible
06 Jul ? 02:10:17 10° NNE 02:14:38 44° E 02:18:58 10° S visible
